Vero Beach, FL

9:08 AM EST on January 17, 2018 (GMT -0500)
Vero Beach Municipal

Weather History for KVRB - July, 2013

Change the Weather History Date:

Sunday, July 28, 2013

  Actual Average Record
Temperature  
Mean Temperature 80 °F 82 °F  
Max Temperature 88 °F 90 °F 97 °F (2017)
Min Temperature 72 °F 74 °F 69 °F (1982)
Degree Days  
Heating Degree Days 0 0  
Month to date heating degree days 0 0  
Since 1 June heating degree days 0 0  
Since 1 July heating degree days 0 0  
Cooling Degree Days 15 17  
Month to date cooling degree days 430 467  
Year to date cooling degree days 1842 1729  
Since 1 June cooling degree days 935 923  
Growing Degree Days 28 (Base 50)    
Moisture  
Dew Point 73 °F    
Average Humidity 83    
Maximum Humidity 100    
Minimum Humidity 65    
Precipitation  
Precipitation 0.98 in 0.18 in 1.15 in (1982)
Month to date precipitation 5.50 5.10  
Year to date precipitation 26.21 27.14  
Sea Level Pressure  
Sea Level Pressure 30.03 in    
Wind  
Wind Speed 5 mph (SSW)    
Max Wind Speed 29 mph    
Max Gust Speed 36 mph    
Visibility 8 miles    
Events Fog , Rain , Thunderstorm    
T = Trace of Precipitation, MM = Missing Value Source: NWS Daily Summary

Daily Weather History Graph

Daily Weather History Graph

Search for Another Location

Airport or City:

Trip Planner

Search our weather history database for the weather conditions in past years. The results will help you decide how hot, cold, wet, or windy it might be!

Date:

Astronomy

Jul. 28, 2013 Rise Set
Actual Time 6:42 AM EDT 8:13 PM EDT
Civil Twilight 6:17 AM EDT 8:38 PM EDT
Nautical Twilight 5:46 AM EDT 9:08 PM EDT
Astronomical Twilight 5:15 AM EDT 9:40 PM EDT
Moon No Moon Rise 12:42 PM EDT (7/28)
Length of Visible Light 14h 21m
Length of Day
13h 30m
Waning Gibbous, 61% of the Moon is Illuminated
Jul 28
Waning Gibbous
Jul 29
Last Quarter
Aug 6
New
Aug 14
First Quarter
Aug 20
Full

Hourly Weather History & Observations

Time (EDT) Temp. Heat Index Dew Point Humidity Pressure Visibility Wind Dir Wind Speed Gust Speed Precip Events Conditions
12:53 AM 77.0 °F - 75.0 °F 94% 29.99 in 10.0 mi South 4.6 mph - N/A   Clear
1:53 AM 75.9 °F - 75.0 °F 97% 29.98 in 10.0 mi South 4.6 mph - N/A   Clear
2:53 AM 75.9 °F - 75.0 °F 97% 29.96 in 10.0 mi SSE 3.5 mph - N/A   Clear
3:53 AM 75.9 °F - 75.0 °F 97% 29.96 in 10.0 mi South 4.6 mph - N/A   Clear
4:53 AM 75.9 °F - 75.0 °F 97% 29.96 in 10.0 mi SSW 3.5 mph - N/A   Scattered Clouds
5:53 AM 75.9 °F - 75.0 °F 97% 29.98 in 10.0 mi WSW 3.5 mph - N/A   Clear
6:53 AM 75.0 °F - 75.0 °F 100% 29.99 in 8.0 mi SW 3.5 mph - N/A   Clear
7:53 AM 77.0 °F - 77.0 °F 100% 30.00 in 10.0 mi WSW 5.8 mph - N/A   Clear
8:53 AM 81.0 °F 86.7 °F 75.0 °F 82% 30.02 in 10.0 mi WSW 5.8 mph - N/A   Clear
9:53 AM 82.0 °F 88.6 °F 75.0 °F 79% 30.02 in 10.0 mi West 3.5 mph - N/A   Clear
10:53 AM 84.9 °F 93.3 °F 75.0 °F 72% 30.04 in 10.0 mi Calm Calm - N/A   Mostly Cloudy
11:53 AM 86.0 °F 93.8 °F 73.9 °F 67% 30.03 in 10.0 mi South 4.6 mph - N/A   Partly Cloudy
12:53 PM 86.0 °F 96.0 °F 75.9 °F 72% 30.04 in 10.0 mi East 8.1 mph - N/A   Overcast
1:53 PM 80.1 °F 85.4 °F 75.9 °F 87% 30.06 in 8.0 mi SSE 18.4 mph - 0.00 in Rain , Thunderstorm Light Thunderstorms and Rain
2:12 PM 73.4 °F - 71.6 °F 94% 30.05 in 0.5 mi SSW 28.8 mph 35.7 mph 0.34 in Fog , Rain , Thunderstorm Heavy Thunderstorms and Rain
2:25 PM 71.6 °F - 68.0 °F 88% 30.06 in 0.5 mi WSW 13.8 mph 28.8 mph 0.73 in Fog , Rain , Thunderstorm Heavy Thunderstorms and Rain
2:34 PM 71.6 °F - 69.8 °F 94% 30.07 in 0.5 mi SSW 10.4 mph - 0.83 in Fog , Rain , Thunderstorm Heavy Thunderstorms and Rain
2:53 PM 72.0 °F - 71.1 °F 97% 30.06 in 0.5 mi West 6.9 mph - 0.97 in Fog , Rain , Thunderstorm Thunderstorms and Rain
3:00 PM 71.6 °F - 71.6 °F 100% 30.05 in 7.0 mi West 6.9 mph - 0.01 in Rain , Thunderstorm Light Rain
3:42 PM 73.4 °F - 71.6 °F 94% 30.02 in 10.0 mi Calm Calm - 0.01 in   Partly Cloudy
3:53 PM 73.9 °F - 72.0 °F 93% 30.02 in 10.0 mi SE 3.5 mph - 0.01 in   Clear
4:53 PM 79.0 °F - 73.0 °F 82% 30.01 in 10.0 mi SSE 10.4 mph - N/A   Clear
5:53 PM 82.0 °F 86.7 °F 72.0 °F 71% 30.02 in 10.0 mi SSE 5.8 mph - N/A   Clear
6:53 PM 82.0 °F 86.7 °F 72.0 °F 71% 30.02 in 10.0 mi South 4.6 mph - N/A   Clear
7:53 PM 80.1 °F 83.8 °F 72.0 °F 76% 30.05 in 10.0 mi SSE 4.6 mph - N/A   Scattered Clouds
8:53 PM 78.1 °F - 73.0 °F 84% 30.06 in 10.0 mi SSE 4.6 mph - N/A   Clear
9:53 PM 77.0 °F - 73.9 °F 90% 30.07 in 10.0 mi South 3.5 mph - N/A   Clear
10:53 PM 77.0 °F - 73.0 °F 88% 30.07 in 10.0 mi SE 5.8 mph - N/A   Clear
11:53 PM 75.9 °F - 73.0 °F 91% 30.08 in 10.0 mi Calm Calm - N/A   Clear